| time (UTC) | temp F | wind direction | speed MPH | gust MPH | rain 1hr in | rain 24hr in | rain mn in | humidity % | barometer mb |
| 20260506161006 | 57 | 26 | 6.0 | 9.0 | 0.00 | 0.00 | 0.00 | 63 | 1009.7 |
| 20260506160505 | 57 | 25 | 6.0 | 10.0 | 0.00 | 0.00 | 0.00 | 63 | 1009.7 |
| 20260506160005 | 57 | 25 | 7.0 | 10.0 | 0.00 | 0.00 | 0.00 | 62 | 1009.8 |
| 20260506155506 | 57 | 25 | 6.0 | 10.0 | 0.00 | 0.00 | 0.00 | 63 | 1009.8 |
| 20260506155006 | 57 | 23 | 5.0 | 10.0 | 0.00 | 0.00 | 0.00 | 62 | 1009.8 |
| 20260506154506 | 57 | 19 | 4.0 | 9.0 | 0.00 | 0.00 | 0.00 | 62 | 1009.8 |
| 20260506154005 | 57 | 21 | 3.0 | 7.0 | 0.00 | 0.00 | 0.00 | 62 | 1009.8 |
| 20260506153005 | 57 | 36 | 5.0 | 9.0 | 0.00 | 0.00 | 0.00 | 65 | 1009.7 |
| 20260506152505 | 57 | 42 | 6.0 | 11.0 | 0.00 | 0.00 | 0.00 | 66 | 1009.8 |
| 20260506152005 | 57 | 39 | 6.0 | 11.0 | 0.00 | 0.00 | 0.00 | 65 | 1009.7 |
| 20260506151006 | 57 | 25 | 6.0 | 11.0 | 0.00 | 0.00 | 0.00 | 64 | 1009.7 |
| 20260506150506 | 57 | 26 | 6.0 | 11.0 | 0.00 | 0.00 | 0.00 | 62 | 1009.7 |
| 20260506145006 | 57 | 24 | 5.0 | 11.0 | 0.00 | 0.00 | 0.00 | 62 | 1009.6 |
| 20260506144006 | 58 | 26 | 7.0 | 10.0 | 0.00 | 0.00 | 0.00 | 64 | 1009.6 |
| 20260506143506 | 58 | 24 | 8.0 | 13.0 | 0.00 | 0.00 | 0.00 | 62 | 1009.6 |
| 20260506143005 | 58 | 25 | 9.0 | 13.0 | 0.00 | 0.00 | 0.00 | 61 | 1009.6 |
| 20260506142505 | 58 | 28 | 9.0 | 14.0 | 0.00 | 0.00 | 0.00 | 62 | 1009.6 |
| 20260506142005 | 58 | 28 | 10.0 | 15.0 | 0.00 | 0.00 | 0.00 | 60 | 1009.5 |
| 20260506141005 | 59 | 26 | 8.0 | 13.0 | 0.00 | 0.00 | 0.00 | 60 | 1009.5 |
| 20260506140505 | 59 | 28 | 9.0 | 13.0 | 0.00 | 0.00 | 0.00 | 59 | 1009.5 |
| 20260506140005 | 59 | 30 | 9.0 | 13.0 | 0.00 | 0.00 | 0.00 | 59 | 1009.5 |
| 20260506135505 | 59 | 26 | 9.0 | 14.0 | 0.00 | 0.00 | 0.00 | 59 | 1009.5 |
| 20260506135006 | 59 | 22 | 7.0 | 14.0 | 0.00 | 0.00 | 0.00 | 56 | 1009.4 |
| 20260506134006 | 59 | 16 | 6.0 | 13.0 | 0.00 | 0.00 | 0.00 | 54 | 1009.5 |
| 20260506133505 | 60 | 23 | 7.0 | 14.0 | 0.00 | 0.00 | 0.00 | 57 | 1009.5 |
| 20260506133005 | 60 | 22 | 9.0 | 14.0 | 0.00 | 0.00 | 0.00 | 56 | 1009.4 |
| 20260506132505 | 60 | 21 | 9.0 | 14.0 | 0.00 | 0.00 | 0.00 | 55 | 1009.3 |
| 20260506132005 | 61 | 16 | 7.0 | 14.0 | 0.00 | 0.00 | 0.00 | 56 | 1009.2 |
| 20260506131505 | 61 | 16 | 7.0 | 14.0 | 0.00 | 0.00 | 0.00 | 58 | 1009.2 |
| 20260506131005 | 61 | 18 | 7.0 | 14.0 | 0.00 | 0.00 | 0.00 | 56 | 1009.2 |
| 20260506130006 | 60 | 22 | 7.0 | 13.0 | 0.00 | 0.00 | 0.00 | 63 | 1009.1 |
| 20260506125507 | 59 | 22 | 7.0 | 13.0 | 0.00 | 0.00 | 0.00 | 63 | 1009.2 |
| 20260506125005 | 58 | 21 | 6.0 | 13.0 | 0.00 | 0.00 | 0.00 | 65 | 1009.2 |
| 20260506124505 | 58 | 17 | 5.0 | 13.0 | 0.00 | 0.00 | 0.00 | 65 | 1009.1 |
| 20260506124005 | 58 | 8 | 3.0 | 8.0 | 0.00 | 0.00 | 0.00 | 65 | 1009.0 |
| 20260506123506 | 58 | 12 | 4.0 | 10.0 | 0.00 | 0.00 | 0.00 | 65 | 1009.0 |
| 20260506123005 | 58 | 17 | 5.0 | 10.0 | 0.00 | 0.00 | 0.00 | 66 | 1009.0 |
| 20260506122005 | 58 | 9 | 5.0 | 12.0 | 0.00 | 0.00 | 0.00 | 66 | 1009.0 |
| 20260506121005 | 58 | 5 | 4.0 | 10.0 | 0.00 | 0.00 | 0.00 | 68 | 1009.0 |
| 20260506120005 | 57 | 3 | 4.0 | 9.0 | 0.00 | 0.00 | 0.00 | 68 | 1009.0 |
| 20260506115505 | 57 | 357 | 4.0 | 10.0 | 0.00 | 0.00 | 0.00 | 67 | 1009.0 |
| 20260506115005 | 57 | 6 | 4.0 | 10.0 | 0.00 | 0.00 | 0.00 | 68 | 1009.0 |
| 20260506114505 | 57 | 355 | 4.0 | 12.0 | 0.00 | 0.00 | 0.00 | 69 | 1009.0 |
| 20260506114005 | 57 | 345 | 5.0 | 12.0 | 0.00 | 0.00 | 0.00 | 69 | 1009.0 |
| 20260506113006 | 57 | 359 | 4.0 | 11.0 | 0.00 | 0.00 | 0.00 | 70 | 1009.1 |
| 20260506112505 | 57 | 2 | 5.0 | 11.0 | 0.00 | 0.00 | 0.00 | 71 | 1009.1 |
| 20260506112005 | 58 | 4 | 5.0 | 11.0 | 0.00 | 0.00 | 0.00 | 70 | 1009.0 |
| 20260506111505 | 58 | 2 | 6.0 | 12.0 | 0.00 | 0.00 | 0.00 | 70 | 1009.0 |
| 20260506111003 | 58 | 6 | 6.0 | 12.0 | 0.00 | 0.00 | 0.00 | 70 | 1008.9 |
| 20260506110505 | 58 | 9 | 6.0 | 12.0 | 0.00 | 0.00 | 0.00 | 71 | 1008.9 |
| 20260506110005 | 58 | 8 | 5.0 | 11.0 | 0.00 | 0.00 | 0.00 | 71 | 1008.9 |
| 20260506105005 | 59 | 10 | 6.0 | 12.0 | 0.00 | 0.00 | 0.00 | 70 | 1008.9 |
| 20260506104505 | 59 | 14 | 6.0 | 12.0 | 0.00 | 0.00 | 0.00 | 69 | 1008.9 |
| 20260506104005 | 58 | 7 | 5.0 | 12.0 | 0.00 | 0.00 | 0.00 | 69 | 1008.9 |
| 20260506103005 | 58 | 342 | 5.0 | 12.0 | 0.00 | 0.00 | 0.00 | 67 | 1008.8 |
| 20260506101505 | 60 | 355 | 4.0 | 13.0 | 0.00 | 0.00 | 0.00 | 64 | 1008.8 |
| 20260506101005 | 61 | 342 | 5.0 | 13.0 | 0.00 | 0.00 | 0.00 | 61 | 1008.7 |
| 20260506100505 | 62 | 345 | 6.0 | 12.0 | 0.00 | 0.00 | 0.00 | 58 | 1008.6 |
| 20260506100006 | 63 | 7 | 7.0 | 12.0 | 0.00 | 0.00 | 0.00 | 60 | 1008.6 |
| 20260506095507 | 62 | 16 | 8.0 | 13.0 | 0.00 | 0.00 | 0.00 | 63 | 1008.6 |
| 20260506095005 | 62 | 12 | 8.0 | 14.0 | 0.00 | 0.00 | 0.00 | 63 | 1008.6 |
| 20260506094506 | 61 | 14 | 7.0 | 14.0 | 0.00 | 0.00 | 0.00 | 61 | 1008.6 |
| 20260506094005 | 62 | 13 | 7.0 | 12.0 | 0.00 | 0.00 | 0.00 | 62 | 1008.5 |
| 20260506093506 | 62 | 14 | 7.0 | 13.0 | 0.00 | 0.00 | 0.00 | 65 | 1008.4 |
| 20260506093005 | 61 | 16 | 8.0 | 14.0 | 0.00 | 0.00 | 0.00 | 63 | 1008.6 |
| 20260506092505 | 60 | 15 | 8.0 | 14.0 | 0.00 | 0.00 | 0.00 | 64 | 1008.6 |
| 20260506092005 | 60 | 15 | 7.0 | 14.0 | 0.00 | 0.00 | 0.00 | 64 | 1008.5 |
| 20260506091505 | 60 | 11 | 6.0 | 14.0 | 0.00 | 0.00 | 0.00 | 64 | 1008.5 |
| 20260506091006 | 60 | 5 | 5.0 | 11.0 | 0.00 | 0.00 | 0.00 | 67 | 1008.5 |
| 20260506090006 | 58 | 14 | 6.0 | 13.0 | 0.00 | 0.00 | 0.00 | 70 | 1008.4 |
| 20260506085505 | 58 | 10 | 5.0 | 10.0 | 0.00 | 0.00 | 0.00 | 71 | 1008.4 |
| 20260506085005 | 58 | 347 | 4.0 | 9.0 | 0.00 | 0.00 | 0.00 | 76 | 1008.3 |
| 20260506084505 | 58 | 334 | 5.0 | 13.0 | 0.00 | 0.00 | 0.00 | 76 | 1008.3 |
| 20260506084006 | 58 | 347 | 5.0 | 13.0 | 0.00 | 0.00 | 0.00 | 75 | 1008.3 |
| 20260506083506 | 58 | 351 | 5.0 | 11.0 | 0.00 | 0.00 | 0.00 | 75 | 1008.3 |
| 20260506082505 | 58 | 333 | 4.0 | 12.0 | 0.00 | 0.00 | 0.00 | 75 | 1008.2 |
| 20260506082005 | 58 | 329 | 5.0 | 11.0 | 0.00 | 0.00 | 0.00 | 77 | 1008.2 |
| 20260506081520 | 57 | 331 | 6.0 | 12.0 | 0.00 | 0.00 | 0.00 | 77 | 1008.2 |
| 20260506080506 | 57 | 336 | 5.0 | 14.0 | 0.00 | 0.00 | 0.00 | 80 | 1008.2 |
| 20260506073506 | 54 | 328 | 5.0 | 11.0 | 0.00 | 0.00 | 0.00 | 84 | 1008.2 |
| 20260506072506 | 54 | 328 | 5.0 | 13.0 | 0.00 | 0.00 | 0.00 | 84 | 1008.3 |
| 20260506072006 | 54 | 333 | 5.0 | 12.0 | 0.00 | 0.00 | 0.00 | 85 | 1008.2 |
| 20260506071506 | 53 | 329 | 5.0 | 12.0 | 0.00 | 0.00 | 0.00 | 84 | 1008.1 |
| 20260506071006 | 53 | 331 | 5.0 | 11.0 | 0.00 | 0.00 | 0.00 | 84 | 1008.1 |
| 20260506062506 | 52 | 333 | 5.0 | 10.0 | 0.00 | 0.00 | 0.00 | 86 | 1008.0 |
| 20260506062007 | 52 | 333 | 5.0 | 12.0 | 0.00 | 0.00 | 0.00 | 86 | 1008.0 |
| 20260506061505 | 52 | 333 | 5.0 | 12.0 | 0.00 | 0.00 | 0.00 | 86 | 1007.9 |
| 20260506061006 | 52 | 333 | 5.0 | 10.0 | 0.00 | 0.00 | 0.00 | 87 | 1007.9 |
| 20260506060506 | 51 | 333 | 4.0 | 10.0 | 0.00 | 0.00 | 0.00 | 87 | 1008.0 |
| 20260506051006 | 51 | 324 | 5.0 | 11.0 | 0.00 | 0.00 | 0.00 | 92 | 1007.9 |
| 20260506050505 | 50 | 335 | 4.0 | 9.0 | 0.00 | 0.00 | 0.00 | 92 | 1007.9 |
| 20260506044505 | 50 | 324 | 4.0 | 11.0 | 0.00 | 0.00 | 0.00 | 92 | 1007.9 |
| 20260506044005 | 50 | 323 | 5.0 | 12.0 | 0.00 | 0.00 | 0.00 | 92 | 1008.0 |
| 20260506043505 | 50 | 324 | 6.0 | 12.0 | 0.00 | 0.00 | 0.00 | 92 | 1008.0 |
| 20260506043007 | 50 | 326 | 4.0 | 10.0 | 0.00 | 0.00 | 0.00 | 92 | 1008.0 |
| 20260506042505 | 50 | 328 | 2.0 | 9.0 | 0.00 | 0.00 | 0.00 | 92 | 1008.1 |
| 20260506041505 | 50 | 0 | 0.0 | 0.0 | 0.00 | 0.00 | 0.00 | 92 | 1008.0 |
| 20260506041006 | 50 | 0 | 0.0 | 0.0 | 0.00 | 0.00 | 0.00 | 92 | 1008.1 |
| 20260506040506 | 50 | 0 | 0.0 | 0.0 | 0.00 | 0.00 | 0.00 | 92 | 1008.0 |
| 20260506034507 | 50 | 356 | 2.0 | 9.0 | 0.00 | 0.00 | 0.00 | 91 | 1008.1 |
| 20260506033005 | 50 | 12 | 3.0 | 7.0 | 0.00 | 0.00 | 0.00 | 90 | 1008.2 |
| 20260506032005 | 50 | 7 | 3.0 | 9.0 | 0.00 | 0.00 | 0.00 | 90 | 1008.2 |
| 20260506031506 | 50 | 2 | 2.0 | 8.0 | 0.00 | 0.00 | 0.00 | 90 | 1008.2 |
| 20260506031006 | 50 | 351 | 4.0 | 10.0 | 0.00 | 0.00 | 0.00 | 89 | 1008.3 |
| 20260506030005 | 51 | 353 | 2.0 | 9.0 | 0.00 | 0.00 | 0.00 | 88 | 1008.4 |
| 20260506025505 | 51 | 346 | 2.0 | 10.0 | 0.00 | 0.00 | 0.00 | 88 | 1008.4 |
| 20260506025007 | 51 | 349 | 2.0 | 10.0 | 0.00 | 0.00 | 0.00 | 87 | 1008.4 |
| 20260506024505 | 51 | 352 | 3.0 | 7.0 | 0.00 | 0.00 | 0.00 | 86 | 1008.4 |
| 20260506024005 | 51 | 345 | 3.0 | 8.0 | 0.00 | 0.00 | 0.00 | 86 | 1008.4 |
| 20260506023505 | 51 | 341 | 3.0 | 9.0 | 0.00 | 0.00 | 0.00 | 85 | 1008.5 |
| 20260506023006 | 51 | 336 | 4.0 | 9.0 | 0.00 | 0.00 | 0.00 | 85 | 1008.4 |
| 20260506022505 | 51 | 330 | 4.0 | 13.0 | 0.00 | 0.00 | 0.00 | 85 | 1008.4 |
| 20260506022006 | 51 | 329 | 4.0 | 13.0 | 0.00 | 0.00 | 0.00 | 86 | 1008.4 |
| 20260506021505 | 51 | 331 | 4.0 | 8.0 | 0.00 | 0.00 | 0.00 | 86 | 1008.4 |
| 20260506021002 | 51 | 331 | 4.0 | 9.0 | 0.00 | 0.00 | 0.00 | 86 | 1008.4 |
| 20260506020506 | 51 | 333 | 4.0 | 9.0 | 0.00 | 0.00 | 0.00 | 86 | 1008.4 |
| 20260506020005 | 51 | 331 | 5.0 | 12.0 | 0.00 | 0.00 | 0.00 | 86 | 1008.4 |
| 20260506015006 | 51 | 330 | 4.0 | 12.0 | 0.00 | 0.00 | 0.00 | 87 | 1008.4 |
| 20260506014505 | 50 | 327 | 4.0 | 12.0 | 0.00 | 0.00 | 0.00 | 87 | 1008.5 |
| 20260506013505 | 50 | 328 | 3.0 | 9.0 | 0.00 | 0.00 | 0.00 | 87 | 1008.4 |
| 20260506013006 | 50 | 331 | 3.0 | 8.0 | 0.00 | 0.00 | 0.00 | 87 | 1008.5 |
| 20260506012507 | 50 | 333 | 2.0 | 9.0 | 0.00 | 0.00 | 0.00 | 87 | 1008.4 |
| 20260506012005 | 50 | 331 | 2.0 | 9.0 | 0.00 | 0.00 | 0.00 | 87 | 1008.5 |
| 20260506011505 | 50 | 329 | 3.0 | 9.0 | 0.00 | 0.00 | 0.00 | 87 | 1008.6 |
| 20260506011006 | 50 | 331 | 3.0 | 9.0 | 0.00 | 0.00 | 0.00 | 87 | 1008.6 |
| 20260506010505 | 50 | 332 | 2.0 | 8.0 | 0.00 | 0.00 | 0.00 | 86 | 1008.7 |
| 20260506005506 | 50 | 329 | 3.0 | 8.0 | 0.00 | 0.00 | 0.00 | 86 | 1008.7 |
| 20260506005005 | 51 | 327 | 3.0 | 9.0 | 0.00 | 0.00 | 0.00 | 86 | 1008.8 |
| 20260506004505 | 51 | 324 | 2.0 | 9.0 | 0.00 | 0.00 | 0.00 | 86 | 1008.9 |
| 20260506004006 | 50 | 324 | 1.0 | 7.0 | 0.00 | 0.00 | 0.00 | 86 | 1008.9 |
| 20260506003505 | 50 | 332 | 1.0 | 9.0 | 0.00 | 0.00 | 0.00 | 86 | 1008.9 |
| 20260506002507 | 50 | 0 | 0.0 | 0.0 | 0.00 | 0.00 | 0.00 | 86 | 1009.0 |
| 20260506001505 | 50 | 330 | 0.0 | 4.0 | 0.00 | 0.00 | 0.00 | 86 | 1009.0 |
| 20260506001005 | 50 | 324 | 2.0 | 8.0 | 0.00 | 0.00 | 0.00 | 86 | 1009.0 |
| 20260506000505 | 50 | 324 | 2.0 | 8.0 | 0.00 | 0.00 | 0.00 | 85 | 1009.0 |
| 20260506000005 | 49 | 328 | 2.0 | 8.0 | 0.00 | 0.00 | 0.00 | 85 | 1009.1 |
| 20260505235007 | 49 | 316 | 0.0 | 6.0 | 0.00 | 0.00 | 0.00 | 84 | 1009.2 |
| 20260505234005 | 50 | 338 | 1.0 | 5.0 | 0.00 | 0.00 | 0.00 | 83 | 1009.2 |
| 20260505233505 | 50 | 333 | 1.0 | 5.0 | 0.00 | 0.00 | 0.00 | 83 | 1009.3 |
| 20260505233005 | 50 | 329 | 2.0 | 5.0 | 0.00 | 0.00 | 0.00 | 83 | 1009.3 |
| 20260505232506 | 50 | 329 | 3.0 | 8.0 | 0.00 | 0.00 | 0.00 | 82 | 1009.4 |
| 20260505232005 | 50 | 331 | 3.0 | 8.0 | 0.00 | 0.00 | 0.00 | 82 | 1009.4 |
| 20260505231506 | 50 | 335 | 2.0 | 8.0 | 0.00 | 0.00 | 0.00 | 82 | 1009.5 |
| 20260505231005 | 50 | 332 | 2.0 | 8.0 | 0.00 | 0.00 | 0.00 | 82 | 1009.5 |
| 20260505230506 | 50 | 332 | 2.0 | 6.0 | 0.00 | 0.00 | 0.00 | 82 | 1009.5 |
| 20260505230005 | 50 | 334 | 2.0 | 8.0 | 0.00 | 0.00 | 0.00 | 82 | 1009.6 |
| 20260505225507 | 50 | 337 | 2.0 | 8.0 | 0.00 | 0.00 | 0.00 | 82 | 1009.6 |
| 20260505225006 | 49 | 343 | 1.0 | 7.0 | 0.00 | 0.00 | 0.00 | 82 | 1009.6 |
| 20260505224505 | 49 | 337 | 2.0 | 6.0 | 0.00 | 0.00 | 0.00 | 82 | 1009.6 |
| 20260505224006 | 49 | 340 | 1.0 | 5.0 | 0.00 | 0.00 | 0.00 | 83 | 1009.6 |
| 20260505223505 | 49 | 335 | 1.0 | 4.0 | 0.00 | 0.00 | 0.00 | 83 | 1009.7 |
| 20260505223005 | 49 | 340 | 2.0 | 4.0 | 0.00 | 0.00 | 0.00 | 83 | 1009.7 |
| 20260505222505 | 49 | 356 | 2.0 | 5.0 | 0.00 | 0.00 | 0.00 | 82 | 1009.7 |
| 20260505222006 | 49 | 4 | 2.0 | 8.0 | 0.00 | 0.00 | 0.00 | 82 | 1009.8 |
| 20260505221505 | 49 | 356 | 2.0 | 8.0 | 0.00 | 0.00 | 0.00 | 82 | 1009.8 |
| 20260505221005 | 50 | 354 | 2.0 | 5.0 | 0.00 | 0.00 | 0.00 | 82 | 1009.8 |
| 20260505220505 | 50 | 354 | 2.0 | 5.0 | 0.00 | 0.00 | 0.00 | 82 | 1009.8 |
| 20260505220006 | 50 | 346 | 2.0 | 7.0 | 0.00 | 0.00 | 0.00 | 82 | 1009.8 |
| 20260505215506 | 50 | 344 | 3.0 | 8.0 | 0.00 | 0.00 | 0.00 | 82 | 1009.8 |
| 20260505214506 | 50 | 334 | 3.0 | 9.0 | 0.00 | 0.00 | 0.00 | 82 | 1009.8 |
| 20260505214006 | 50 | 333 | 3.0 | 9.0 | 0.00 | 0.00 | 0.00 | 83 | 1009.8 |
| 20260505213506 | 50 | 333 | 4.0 | 9.0 | 0.00 | 0.00 | 0.00 | 83 | 1009.8 |
| 20260505213006 | 50 | 330 | 4.0 | 10.0 | 0.00 | 0.00 | 0.00 | 83 | 1009.9 |
| 20260505212507 | 50 | 329 | 3.0 | 10.0 | 0.00 | 0.00 | 0.00 | 83 | 1009.9 |
| 20260505212006 | 50 | 332 | 1.0 | 7.0 | 0.00 | 0.00 | 0.00 | 83 | 1009.9 |
| 20260505211506 | 50 | 341 | 0.0 | 5.0 | 0.00 | 0.00 | 0.00 | 83 | 1010.0 |
| 20260505211005 | 51 | 359 | 0.0 | 5.0 | 0.00 | 0.00 | 0.00 | 82 | 1009.9 |
| 20260505210505 | 51 | 353 | 1.0 | 5.0 | 0.00 | 0.00 | 0.00 | 82 | 1010.0 |
| 20260505210005 | 51 | 353 | 3.0 | 8.0 | 0.00 | 0.00 | 0.00 | 81 | 1010.0 |
| 20260505205505 | 51 | 349 | 3.0 | 8.0 | 0.00 | 0.00 | 0.00 | 81 | 1010.0 |
| 20260505205005 | 51 | 348 | 3.0 | 8.0 | 0.00 | 0.00 | 0.00 | 81 | 1010.0 |
| 20260505204506 | 51 | 354 | 3.0 | 8.0 | 0.00 | 0.00 | 0.00 | 81 | 1010.0 |
| 20260505204005 | 51 | 350 | 3.0 | 9.0 | 0.00 | 0.00 | 0.00 | 80 | 1010.0 |
| 20260505203506 | 51 | 348 | 3.0 | 11.0 | 0.00 | 0.00 | 0.00 | 80 | 1010.1 |
| 20260505203005 | 51 | 347 | 3.0 | 11.0 | 0.00 | 0.00 | 0.00 | 80 | 1010.1 |
| 20260505202505 | 51 | 346 | 3.0 | 8.0 | 0.00 | 0.00 | 0.00 | 80 | 1010.2 |
| 20260505202005 | 52 | 347 | 1.0 | 8.0 | 0.00 | 0.00 | 0.00 | 79 | 1010.2 |
| 20260505201505 | 52 | 342 | 2.0 | 8.0 | 0.00 | 0.00 | 0.00 | 79 | 1010.2 |
| 20260505201005 | 52 | 351 | 4.0 | 8.0 | 0.00 | 0.00 | 0.00 | 79 | 1010.1 |
| 20260505200505 | 52 | 357 | 4.0 | 10.0 | 0.00 | 0.00 | 0.00 | 79 | 1010.1 |
| 20260505195505 | 52 | 357 | 4.0 | 9.0 | 0.00 | 0.00 | 0.00 | 79 | 1010.0 |
| 20260505195006 | 52 | 2 | 4.0 | 11.0 | 0.00 | 0.00 | 0.00 | 78 | 1010.0 |
| 20260505194506 | 52 | 1 | 5.0 | 11.0 | 0.00 | 0.00 | 0.00 | 78 | 1009.9 |
| 20260505194005 | 52 | 356 | 5.0 | 11.0 | 0.00 | 0.00 | 0.00 | 78 | 1009.9 |
| 20260505193506 | 52 | 356 | 4.0 | 11.0 | 0.00 | 0.00 | 0.00 | 79 | 1009.8 |
| 20260505193005 | 53 | 354 | 4.0 | 9.0 | 0.00 | 0.00 | 0.00 | 79 | 1009.8 |
| 20260505192505 | 53 | 356 | 4.0 | 9.0 | 0.00 | 0.00 | 0.00 | 79 | 1009.7 |
| 20260505192006 | 53 | 358 | 4.0 | 10.0 | 0.00 | 0.00 | 0.00 | 79 | 1009.7 |
| 20260505191506 | 53 | 1 | 4.0 | 10.0 | 0.00 | 0.00 | 0.00 | 79 | 1009.6 |
| 20260505191005 | 53 | 354 | 4.0 | 10.0 | 0.00 | 0.00 | 0.00 | 78 | 1009.6 |
| 20260505190505 | 53 | 351 | 4.0 | 10.0 | 0.00 | 0.00 | 0.00 | 78 | 1009.5 |
| 20260505190005 | 53 | 352 | 4.0 | 9.0 | 0.00 | 0.00 | 0.00 | 78 | 1009.5 |
| 20260505185505 | 53 | 351 | 4.0 | 9.0 | 0.00 | 0.00 | 0.00 | 77 | 1009.4 |
| 20260505185005 | 54 | 356 | 4.0 | 9.0 | 0.00 | 0.00 | 0.00 | 77 | 1009.3 |
| 20260505184505 | 54 | 359 | 5.0 | 10.0 | 0.00 | 0.00 | 0.00 | 76 | 1009.2 |
| 20260505184005 | 54 | 357 | 5.0 | 10.0 | 0.00 | 0.00 | 0.00 | 76 | 1009.2 |
| 20260505183505 | 54 | 356 | 5.0 | 11.0 | 0.00 | 0.00 | 0.00 | 76 | 1009.2 |
| 20260505183005 | 54 | 357 | 5.0 | 12.0 | 0.00 | 0.00 | 0.00 | 75 | 1009.2 |
| 20260505182505 | 55 | 354 | 5.0 | 12.0 | 0.00 | 0.00 | 0.00 | 75 | 1009.2 |
| 20260505182005 | 55 | 347 | 6.0 | 12.0 | 0.00 | 0.00 | 0.00 | 74 | 1009.1 |
| 20260505181505 | 55 | 351 | 5.0 | 12.0 | 0.00 | 0.00 | 0.00 | 74 | 1009.1 |
| 20260505181005 | 55 | 356 | 5.0 | 13.0 | 0.00 | 0.00 | 0.00 | 74 | 1009.1 |
| 20260505180505 | 55 | 350 | 6.0 | 13.0 | 0.00 | 0.00 | 0.00 | 73 | 1009.1 |
| 20260505180007 | 55 | 347 | 6.0 | 13.0 | 0.00 | 0.00 | 0.00 | 73 | 1009.1 |
| 20260505175520 | 56 | 350 | 6.0 | 15.0 | 0.00 | 0.00 | 0.00 | 72 | 1009.1 |
| 20260505175005 | 56 | 353 | 5.0 | 15.0 | 0.00 | 0.00 | 0.00 | 72 | 1009.1 |
| 20260505174505 | 56 | 351 | 6.0 | 12.0 | 0.00 | 0.00 | 0.00 | 72 | 1009.1 |
| 20260505174006 | 56 | 348 | 5.0 | 12.0 | 0.00 | 0.00 | 0.00 | 71 | 1009.1 |
| 20260505173505 | 56 | 352 | 5.0 | 10.0 | 0.00 | 0.00 | 0.00 | 73 | 1009.1 |
| 20260505173005 | 56 | 5 | 5.0 | 10.0 | 0.00 | 0.00 | 0.00 | 72 | 1009.1 |
| 20260505172005 | 57 | 355 | 5.0 | 14.0 | 0.00 | 0.00 | 0.00 | 72 | 1009.2 |
| 20260505171506 | 57 | 346 | 6.0 | 14.0 | 0.00 | 0.00 | 0.00 | 71 | 1009.2 |
| 20260505171007 | 57 | 346 | 6.0 | 14.0 | 0.00 | 0.00 | 0.00 | 71 | 1009.3 |
| 20260505170505 | 57 | 343 | 6.0 | 12.0 | 0.00 | 0.00 | 0.00 | 71 | 1009.3 |
| 20260505170005 | 57 | 344 | 6.0 | 12.0 | 0.00 | 0.00 | 0.00 | 71 | 1009.3 |
| 20260505165505 | 57 | 347 | 6.0 | 13.0 | 0.00 | 0.00 | 0.00 | 70 | 1009.2 |
| 20260505165006 | 58 | 343 | 6.0 | 13.0 | 0.00 | 0.00 | 0.00 | 70 | 1009.3 |
| 20260505164505 | 58 | 340 | 7.0 | 13.0 | 0.00 | 0.00 | 0.00 | 70 | 1009.4 |
| 20260505164005 | 58 | 342 | 7.0 | 13.0 | 0.00 | 0.00 | 0.00 | 71 | 1009.4 |
| 20260505163007 | 58 | 349 | 5.0 | 11.0 | 0.00 | 0.00 | 0.00 | 71 | 1009.4 |
| 20260505162506 | 58 | 344 | 5.0 | 12.0 | 0.00 | 0.00 | 0.00 | 71 | 1009.4 |
| 20260505162005 | 58 | 343 | 5.0 | 12.0 | 0.00 | 0.00 | 0.00 | 71 | 1009.4 |
| 20260505161505 | 58 | 342 | 6.0 | 12.0 | 0.00 | 0.00 | 0.00 | 72 | 1009.4 |